Regional Weather Roundup
Issued by NWS

Home | Current Version | Previous Version | Text Only | Print | Product List | Glossary Off
Versions: 1 2 3 4 5 6 7 8 9 10 11 12 13 14 15 16 17 18 19 20 21 22 23 24 25 26 27 28 29 30 31 32 33 34 35 36 37 38 39 40 41 42 43 44 45 46 47 48 49 50

000
ASUS43 KLSX 241410
RWRMO

WEATHER SUMMARY FOR MISSOURI
NATIONAL WEATHER SERVICE SPRINGFIELD MO
800 AM CST TUE JAN 24 2017

NOTE: "FAIR" INDICATES FEW OR NO CLOUDS BELOW 12,000 FEET WITH NO
       SIGNIFICANT WEATHER AND/OR OBSTRUCTIONS TO VISIBILITY.
       CURRENT SKY AND/OR WEATHER CONDITIONS ARE NOT AVAILABLE FOR
       CHILLICOTHE AND FARMINGTON.

MOZ001>031-035>038-043-044-053-054-241500-
...NORTHERN AND WESTERN MISSOURI...

CITY           SKY/WX    TMP DP  RH WIND       PRES   REMARKS
KANSAS CTY INT CLOUDY    31  28  89 E15       29.72S FOG     WCI  20
KANSAS C DTWN  CLOUDY    33  31  92 E16G22    29.72F FOG     WCI  23
LEE`S SUMMIT   CLOUDY    31  30  96 E16G24    29.73S FOG     WCI  20
ST JOSEPH      CLOUDY    32  32 100 E8G20     29.74S FOG     WCI  25
CHILLICOTHE      N/A     32  29  88 SE9       29.83S WCI  24
KIRKSVILLE     CLOUDY    31  29  92 E7        29.84S WCI  24

$$
MOZ066>068-077>081-088>096-101>105-241500-
...SOUTHWEST MISSOURI...

CITY           SKY/WX    TMP DP  RH WIND       PRES   REMARKS
SPRINGFIELD    CLEAR     40  33  76 SE21G26   29.73R
JOPLIN         CLEAR     42  34  73 SE14G23   29.65F
BRANSON        PTCLDY    36  34  93 SE13      29.78R WCI  27

$$
MOZ032>034-039>042-045>050-055>058-069>072-241500-
...CENTRAL MISSOURI...

CITY           SKY/WX    TMP DP  RH WIND       PRES   REMARKS
COLUMBIA       CLEAR     34  32  92 E13       29.82S WCI  25
JEFFERSON CITY CLEAR     32  31  96 E7        29.84F FOG     WCI  26
ROLLA          CLEAR     30  30 100 SE15      29.81F WCI  19
SEDALIA        CLOUDY    33  32  96 E15       29.79F FOG     WCI  23
WARRENSBURG    CLOUDY    32  32 100 E9        29.77S FOG     WCI  24
OSAGE BEACH    CLEAR     32  31  96 E5        29.82R WCI  27

$$
MOZ051-052-059>065-241500-
...EAST CENTRAL MISSOURI...

CITY           SKY/WX    TMP DP  RH WIND       PRES   REMARKS
ST LOUIS INTL  MOCLDY    37  30  75 SE6       29.91R
SPIRIT OF STL  CLOUDY    37  34  89 CALM      29.90R
ST CHARLES     MOCLDY    36  33  89 SE5       29.90S

$$
MOZ072>076-082>087-097>100-106>115-241500-
...SOUTH CENTRAL AND SOUTHEAST MISSOURI...

CITY           SKY/WX    TMP DP  RH WIND       PRES   REMARKS
CAPE GIRARDEAU NOT AVBL
FARMINGTON     PTCLDY    27  26  96 CALM      29.89F
POPLAR BLUFF   CLEAR     31  29  92 CALM      29.92S
WEST PLAINS    CLEAR     33  32  96 SE5       29.85S WCI  29

$$



USA.gov is the U.S. government's official web portal to all federal, state and local government web resources and services.